Location: New Plymouth
(39.0670°S, 174.0830°E)
Time: 00:31:44
(UTC+12:00)

ARGOS - Pass Details

Date: 24 January 2019
Orbit: 819 x 835 km, 98.5° (Epoch: 19 April)

Event Time Altitude Azimuth Distance (km) Brightness Sun altitude
Rises 23:11:53 0° 173° (S) 3,389 7.0 -22.7°
Reaches altitude 10° 23:14:18 10° 177° (S) 2,449 6.3 -23.0°
Maximum altitude 23:19:33 52° 252° (WSW) 1,023 3.8 -23.6°
Enters shadow 23:23:23 18° 322° (NW) 1,919 4.9 -24.0°
